Location: Dugenta
(41.1333°N, 14.4500°E)
Time: 13:40:46
(UTC+00:00)

SL-8 Rocket - Pass Details

Date: 03 March 2021
Orbit: 957 x 990 km, 82.9° (Epoch: 21 April)

Event Time Altitude Azimuth Distance (km) Brightness Sun altitude
Rises 18:04:19 0° 167° (SSE) 3,670 6.8 -13.7°
Reaches altitude 10° 18:06:55 10° 161° (SSE) 2,722 6.1 -14.2°
Maximum altitude 18:12:49 46° 90° (E) 1,280 4.2 -15.3°
Drops below altitude 10° 18:18:42 10° 19° (NNE) 2,716 6.2 -16.4°
Sets 18:21:18 0° 14° (NNE) 3,663 6.9 -16.9°
